[TLELIST] Archives

 

[list_settings.list_name] Current TLEs

August 26th 2013 PST

HST 1 20580U 90037B 13238.15893182 .00001724 00000-0 11002-3 0 3128 2 20580 028.4695 174.0440 0003321 019.5514 118.2817 15.03869509 80243 ISS (ZARYA) 1 25544U 98067A 13238.26244449 .00012392 00000-0 22048-3 0 4634 2 25544 051.6509 121.1029 0004392 359.4364 100.2420 15.50545979845574 CXO 1 25867U 99040B 13239.33436284 -.00000003 00000-0 00000+0 0 9411 2 25867 075.8241 335.4862 8485978 276.9078 000.8142 00.37801001 10800 ____________________________________________________________________ These 2-Line ...Continue Reading

[list_settings.list_name] Current TLEs

August 25th 2013 PST

HST 1 20580U 90037B 13237.09286759 .00001778 00000-0 11388-3 0 3111 2 20580 028.4695 181.0348 0003294 008.7404 106.1180 15.03866319 80082 ISS (ZARYA) 1 25544U 98067A 13237.23033722 .00014367 00000-0 25447-3 0 4562 2 25544 051.6507 126.2190 0004238 355.4583 099.2974 15.50527025845411 CXO 1 25867U 99040B 13239.33436284 -.00000003 00000-0 00000+0 0 9411 2 25867 075.8241 335.4862 8485978 276.9078 000.8142 00.37801001 10800 ____________________________________________________________________ These 2-Line ...Continue Reading

[list_settings.list_name] Current TLEs

August 24th 2013 PST

HST 1 20580U 90037B 13235.30170859 .00001848 00000-0 11889-3 0 3109 2 20580 028.4694 192.7801 0003178 350.0413 128.5349 15.03858886 79812 ISS (ZARYA) 1 25544U 98067A 13236.32973502 .00013868 00000-0 24617-3 0 4529 2 25544 051.6506 130.6827 0004191 354.6503 109.7594 15.50499084845279 CXO 1 25867U 99040B 13236.69051995 -.00000125 00000-0 00000+0 0 9403 2 25867 075.8215 335.6121 8488586 276.9490 000.8613 00.37801565 10793 ____________________________________________________________________ These 2-Line ...Continue Reading

[list_settings.list_name] Current TLEs

August 23rd 2013 PST

HST 1 20580U 90037B 13234.17347571 .00001704 00000-0 10865-3 0 3092 2 20580 028.4694 200.1786 0003153 338.6351 139.7764 15.03854450 79643 ISS (ZARYA) 1 25544U 98067A 13235.36340709 .00011770 00000-0 21043-3 0 4462 2 25544 051.6493 135.4719 0004041 350.1258 116.9094 15.50463783845125 CXO 1 25867U 99040B 13236.69051995 -.00000125 00000-0 00000+0 0 9403 2 25867 075.8215 335.6121 8488586 276.9490 000.8613 00.37801565 10793 ____________________________________________________________________ These 2-Line ...Continue Reading

[list_settings.list_name] Current TLEs

August 22nd 2013 PST

HST 1 20580U 90037B 13234.17347571 .00001704 00000-0 10865-3 0 3092 2 20580 028.4694 200.1786 0003153 338.6351 139.7764 15.03854450 79643 ISS (ZARYA) 1 25544U 98067A 13234.43815972 .00009819 00000-0 17709-3 0 4395 2 25544 051.6496 140.0590 0003906 344.5133 354.7019 15.50433071844973 CXO 1 25867U 99040B 13236.69051995 -.00000125 00000-0 00000+0 0 9403 2 25867 075.8215 335.6121 8488586 276.9490 000.8613 00.37801565 10793 ____________________________________________________________________ These 2-Line ...Continue Reading

[list_settings.list_name] Current TLEs

August 21st 2013 PST

HST 1 20580U 90037B 13232.38298260 .00001430 00000-0 89240-4 0 3082 2 20580 028.4693 211.9198 0003083 319.7053 166.1107 15.03848148 79372 ISS (ZARYA) 1 25544U 98067A 13233.24184664 .00008437 00000-0 15346-3 0 4334 2 25544 051.6489 145.9890 0004126 342.7791 154.7735 15.50403484844795 CXO 1 25867U 99040B 13234.04479791 -.00000010 00000-0 00000+0 0 9399 2 25867 075.8148 335.7352 8494201 276.9834 000.7042 00.37804162 10788 ____________________________________________________________________ These 2-Line ...Continue Reading

[list_settings.list_name] Current TLEs

August 20th 2013 PST

HST 1 20580U 90037B 13231.11422559 .00001471 00000-0 92183-4 0 3076 2 20580 028.4693 220.2398 0003038 306.5329 136.8874 15.03844216 79172 ISS (ZARYA) 1 25544U 98067A 13232.50520833 .00008678 00000-0 15769-3 0 4273 2 25544 051.6486 149.6402 0004258 339.1747 004.1666 15.50390936844674 CXO 1 25867U 99040B 13234.04479791 -.00000010 00000-0 00000+0 0 9399 2 25867 075.8148 335.7352 8494201 276.9834 000.7042 00.37804162 10788 ____________________________________________________________________ These 2-Line ...Continue Reading

[list_settings.list_name] Current TLEs

August 19th 2013 PST

HST 1 20580U 90037B 13231.11422559 .00001471 00000-0 92183-4 0 3076 2 20580 028.4693 220.2398 0003038 306.5329 136.8874 15.03844216 79172 ISS (ZARYA) 1 25544U 98067A 13231.43181836 .00009110 00000-0 16523-3 0 4215 2 25544 051.6475 154.9600 0004180 335.1118 133.2903 15.50373128844518 CXO 1 25867U 99040B 13231.39883085 .00000169 00000-0 00000+0 0 9382 2 25867 075.7987 335.8969 8500064 276.9863 000.6082 00.37802070 10778 ____________________________________________________________________ These 2-Line ...Continue Reading

[list_settings.list_name] Current TLEs

August 18th 2013 PST

HST 1 20580U 90037B 13229.46387500 .00001271 00000-0 77992-4 0 3065 2 20580 028.4692 231.0623 0002991 288.8196 202.2593 15.03840956 78939 ISS (ZARYA) 1 25544U 98067A 13230.50572917 .00008727 00000-0 15874-3 0 4150 2 25544 051.6491 159.5490 0003866 331.4506 004.7501 15.50354767844361 CXO 1 25867U 99040B 13231.39883085 .00000169 00000-0 00000+0 0 9382 2 25867 075.7987 335.8969 8500064 276.9863 000.6082 00.37802070 10778 ____________________________________________________________________ These 2-Line ...Continue Reading

[list_settings.list_name] Current TLEs

August 17th 2013 PST

HST 1 20580U 90037B 13228.40279465 .00001015 00000-0 59818-4 0 3050 2 20580 028.4692 238.0199 0002977 275.1738 220.0796 15.03839355 78775 ISS (ZARYA) 1 25544U 98067A 13229.18148438 .00006602 00000-0 12218-3 0 4079 2 25544 051.6490 166.1112 0003693 325.2245 175.1602 15.50322921844164 CXO 1 25867U 99040B 13231.39883085 .00000169 00000-0 00000+0 0 9382 2 25867 075.7987 335.8969 8500064 276.9863 000.6082 00.37802070 10778 ____________________________________________________________________ These 2-Line ...Continue Reading
  • This mailing list is a public mailing list - anyone may join or leave, at any time.
  • This mailing list is announce-only.

International Space Station (ISS) / Hubble Space Telescope (HST) / Chandra X-Ray Observatory Orbital Data via EMAIL

Privacy Policy:

Private list